Simultaneous Nadir Overpasses (SNOs) Predictions

Prediction of SNOs between AURA and NPP Satellite Orbit:

Table of predicted SNOs for the next 14.0 days since TLE Epoch: 9/7/2024
Index Date (AURA) Time (AURA) Lat,Lon (AURA) SZA (AURA ) Date (NPP) Time (NPP) Lat,Lon (NPP) SZA (NPP ) Distance(km) Time Diff (sec)
1 09/08/2024 16:35:48 -80.79, 22.68 95.62 09/08/2024 16:34:58 -80.79, 22.79 95.61 2.11 50
2 09/08/2024 17:25:09 80.83,-169.15 84.32 09/08/2024 17:25:40 80.84,-169.09 84.29 1.23 31
3 09/11/2024 05:29:39 -80.79,-170.72 94.72 09/11/2024 05:28:50 -80.79,-170.67 94.69 0.94 49
4 09/11/2024 06:18:59 80.86, -2.25 85.17 09/11/2024 06:19:31 80.85, -2.22 85.15 0.58 32
5 09/13/2024 18:23:27 -80.78, -4.26 93.78 09/13/2024 18:22:42 -80.78, -4.29 93.75 0.53 45
6 09/13/2024 19:12:47 80.85, 164.17 86.12 09/13/2024 19:13:23 80.84, 164.13 86.10 0.62 36
7 09/16/2024 07:17:11 -80.79, 162.41 92.87 09/16/2024 07:16:33 -80.79, 162.29 92.83 2.22 38
8 09/16/2024 08:06:31 80.85, -29.21 87.04 09/16/2024 08:07:14 80.85, -29.31 87.02 1.78 43
9 09/18/2024 20:10:51 -80.81, -30.71 91.98 09/18/2024 20:10:22 -80.82, -30.58 91.99 2.41 29



Historial Predications of SNOs between AURA and NPP
